Temperature
21 20 19 19 19 19 21 22 23 23 23 23 23 23 22 21 21 21 21 21 21 21 20 20 20 20 20 19 19 19 19 19 19 19 19 19 19 19 19 19 19 19 19 19 18 18 18 18 18
21 20 19 19 19 20 22 22 23 23 23 23 23 23 22 21 21 21 21 21 21 21 20 20 20 20 20 19 19 19 19 19 19 18 18 18 19 19 19 19 19 19 19 18 18 18 18 18 18
20 20 19 19 20 21 22 23 23 23 24 24 23 23 22 21 21 21 21 21 21 21 20 20 20 20 19 19 19 19 19 19 19 18 18 18 18 18 18 18 18 18 18 18 18 18 18 18 18
20 20 20 20 22 22 22 23 23 23 24 24 23 22 22 21 21 21 21 21 21 20 20 20 20 19 19 19 19 19 19 19 19 18 18 18 18 18 18 18 18 18 18 18 18 18 18 18 18
21 20 20 20 22 23 23 23 24 23 23 23 22 21 21 21 21 21 21 21 20 20 20 20 20 19 19 19 19 19 19 19 19 18 18 18 18 18 18 18 18 18 18 18 18 18 18 18 18
21 20 20 21 22 23 23 24 24 23 23 23 22 21 21 21 21 21 21 20 20 20 20 20 19 19 19 19 19 19 19 19 19 19 18 18 18 18 18 18 18 18 18 18 18 18 18 18 18
21 20 21 21 22 23 24 24 24 23 23 23 23 21 21 21 21 21 20 20 20 20 19 19 19 19 19 19 19 19 19 19 19 19 19 18 18 18 18 19 18 18 18 18 18 18 18 18 18
22 20 21 21 22 23 24 24 24 24 23 23 23 21 20 21 21 20 20 20 20 20 19 19 19 19 19 19 19 19 19 19 19 19 19 18 18 18 18 18 18 18 18 18 18 18 18 18 18
22 20 21 22 23 23 24 24 24 24 23 23 22 22 22 21 21 20 20 20 20 20 19 19 19 19 19 19 19 19 19 19 19 19 18 18 18 18 18 18 18 18 18 18 18 18 18 18 18
22 20 22 23 23 23 24 24 24 24 23 22 22 22 21 21 21 20 20 20 20 20 20 19 19 19 19 19 19 19 19 19 19 19 19 18 18 18 18 18 18 18 18 18 18 18 18 18 18
21 22 23 24 24 24 24 24 24 23 22 22 22 21 21 21 21 21 20 20 20 20 20 19 19 19 19 19 19 19 19 19 19 19 18 18 18 18 18 18 18 18 18 18 18 18 18 18 18
22 23 24 24 25 24 24 24 23 23 23 23 22 22 21 21 21 21 21 20 20 20 20 20 19 19 19 19 19 19 19 19 19 19 19 19 18 18 18 18 18 18 18 18 18 18 18 18 18
23 24 25 25 25 25 24 23 23 23 23 23 22 22 22 21 21 21 21 20 20 20 20 20 19 19 19 19 19 19 19 19 19 19 19 19 18 18 18 18 18 18 18 18 18 18 18 18 18
24 24 24 25 25 25 24 23 23 23 23 22 22 22 22 21 21 21 21 20 20 20 20 20 19 19 19 19 19 19 19 19 19 19 18 18 18 18 18 18 18 18 18 18 18 18 18 18 18
24 24 24 24 24 24 24 23 23 23 23 22 22 22 22 21 21 21 21 21 21 20 20 20 20 19 19 19 19 19 19 19 19 18 18 18 18 18 18 18 18 18 18 18 18 18 18 18 18
24 23 23 24 24 24 24 23 23 23 23 22 22 21 21 21 21 21 21 21 21 20 20 20 20 19 19 19 19 19 19 19 19 18 18 18 18 18 18 18 18 18 18 18 18 18 18 18 18
22 23 23 24 24 24 23 23 23 23 22 22 21 21 21 21 21 21 21 21 21 21 20 20 20 19 19 19 19 19 19 18 18 18 18 18 18 18 18 18 18 18 18 18 18 18 18 18 18
23 23 23 23 24 23 22 22 22 22 22 21 21 21 21 21 21 21 21 21 21 21 20 20 20 19 19 19 19 19 18 18 18 18 18 18 18 18 18 18 18 18 18 18 18 18 18 18 18
24 23 23 23 24 23 22 22 22 22 21 21 21 21 21 22 22 21 21 21 21 21 20 20 20 19 19 19 19 19 18 18 18 18 18 18 18 18 18 18 18 18 18 18 18 18 18 18 18
24 23 23 23 24 23 22 22 22 21 21 21 21 21 21 22 21 21 21 21 21 21 20 20 20 19 19 19 19 18 18 18 18 18 18 18 18 18 18 18 18 18 18 18 18 18 18 17 17
23 23 23 23 23 23 23 22 22 21 21 21 21 21 21 21 21 21 21 21 21 21 20 20 20 19 19 19 19 18 18 18 18 18 18 18 18 18 18 18 18 18 17 18 18 18 17 17 17
23 24 24 24 22 21 22 21 21 21 20 20 21 21 21 21 21 21 21 21 21 21 20 20 20 19 19 19 19 18 18 18 18 18 18 18 18 18 18 18 18 18 17 17 17 17 17 17 17
24 24 23 23 22 21 21 21 20 20 20 20 20 21 21 21 21 21 21 21 21 20 20 20 20 19 19 19 19 18 18 18 18 18 18 18 18 18 18 18 18 17 17 17 17 17 17 17 17
24 23 22 20 19 21 21 21 21 20 21 21 21 21 21 21 21 21 21 21 20 20 20 20 20 19 19 19 19 18 18 18 18 18 18 18 18 17 17 17 17 17 17 17 17 17 17 17 17
23 21 21 21 20 20 20 20 20 21 21 21 21 21 21 21 21 21 21 21 20 20 20 20 20 20 19 19 18 18 18 18 18 18 18 18 17 17 17 17 17 17 17 17 17 17 16 16 16
23 22 21 22 21 20 20 20 21 22 21 22 22 21 21 21 21 21 21 21 21 20 20 20 20 19 19 19 18 18 18 18 18 18 17 17 17 17 17 17 17 17 17 16 17 16 16 16 16
23 21 21 19 20 20 20 20 21 21 21 20 21 21 20 21 21 21 21 21 21 20 20 20 19 19 19 19 18 18 18 18 18 17 17 17 17 17 17 17 17 16 16 16 16 16 16 16 16
22 20 18 19 20 20 21 21 20 21 21 20 19 20 20 20 20 21 21 21 21 20 20 19 19 19 19 18 18 18 18 18 17 17 17 17 17 17 16 16 16 16 16 16 16 16 16 16 15
22 20 18 17 18 19 20 21 21 21 20 20 20 20 20 20 20 21 21 21 21 20 19 19 19 19 18 18 18 18 17 17 17 17 17 17 17 16 16 16 16 16 16 16 16 15 15 15 15
22 21 19 20 19 17 19 20 22 20 20 20 20 20 21 21 21 21 21 21 20 20 19 19 19 18 18 18 18 18 17 17 17 17 16 16 16 16 16 16 15 15 15 15 15 15 15 15 15
Wind_Speed
8 7 3 1 2 3 3 4 1 2 2 2 3 4 4 2 1 2 2 1 1 1 3 5 5 5 6 8 8 9 9 11 11 11 11 11 10 10 9 9 8 8 8 8 8 8 7 8 8
6 5 1 1 3 3 4 3 2 1 2 3 4 4 4 2 1 1 0 1 1 2 2 4 5 6 7 7 8 8 8 10 11 11 10 10 10 9 9 8 7 7 7 7 7 7 7 7 8
6 3 1 3 2 1 2 2 1 1 2 1 2 3 3 1 1 1 2 2 2 1 1 3 5 6 7 7 7 7 7 9 10 10 10 9 8 8 7 7 6 6 6 6 5 5 6 6 7
3 0 2 3 2 2 3 3 1 1 2 3 3 3 3 2 1 1 2 3 3 1 1 3 4 6 7 7 6 6 6 7 8 10 9 9 8 7 6 6 6 6 6 6 6 6 6 6 6
1 2 4 3 3 3 2 2 1 1 1 2 3 3 3 5 3 4 4 3 2 1 1 1 2 5 6 6 6 6 6 7 8 9 8 8 7 7 6 5 5 5 5 5 5 5 5 5 6
2 3 4 3 4 3 1 1 1 1 2 2 3 3 2 2 3 3 3 2 1 1 1 0 2 3 5 5 5 5 6 6 7 8 8 7 7 6 5 4 4 5 5 5 5 5 5 6 6
2 3 1 1 3 3 1 1 1 2 2 1 3 3 1 2 2 3 3 3 3 2 2 2 1 1 2 3 3 4 5 5 6 6 6 6 6 5 4 3 3 3 3 4 4 5 6 6 6
3 3 1 1 1 3 1 2 1 2 1 3 3 4 1 1 3 4 4 4 3 3 3 3 2 2 1 0 2 4 4 4 4 5 5 5 5 4 3 2 2 2 2 3 4 5 5 5 5
3 3 1 3 3 3 1 1 2 2 3 3 3 3 3 5 6 6 4 3 3 2 2 2 2 1 1 1 2 2 3 3 3 2 3 3 2 2 1 1 1 1 2 2 3 4 4 4 4
3 2 5 4 4 2 1 0 1 2 3 3 4 5 6 6 6 5 3 2 0 1 2 2 2 2 2 2 2 2 2 2 2 2 2 2 2 2 1 1 0 0 1 1 2 2 2 2 1
4 5 4 3 3 3 2 1 2 5 1 2 5 6 6 6 5 4 2 1 1 1 1 2 1 2 2 2 2 2 2 2 3 2 2 2 2 2 2 1 1 2 2 2 2 1 0 1 1
3 4 4 3 1 3 3 3 3 2 2 4 6 7 7 7 5 4 3 1 1 1 2 2 2 2 2 2 2 2 2 2 2 1 2 2 1 1 1 1 2 2 1 2 2 1 1 1 1
2 3 2 1 0 2 4 4 3 1 3 6 7 7 7 6 5 3 3 2 2 2 2 2 3 2 2 2 1 2 2 1 1 1 1 2 2 1 1 1 1 1 1 1 1 2 2 1 1
1 1 2 3 2 2 5 3 3 1 5 6 6 6 6 5 5 3 3 2 2 1 1 2 3 2 3 2 2 1 2 2 2 2 2 2 1 1 1 1 1 1 1 1 1 1 1 1 1
2 3 5 3 2 1 5 3 1 2 5 5 4 5 5 4 4 4 4 3 3 2 1 2 3 3 3 3 2 2 2 2 2 2 2 1 1 1 1 1 1 1 1 1 2 2 2 2 1
3 3 2 3 1 1 4 2 3 3 6 5 4 4 4 3 3 3 3 3 3 2 2 2 3 4 3 3 3 3 3 2 2 2 2 2 2 2 2 1 1 1 1 2 2 2 2 2 1
4 1 2 3 1 1 3 3 3 3 5 5 4 4 4 3 2 3 4 4 3 3 3 2 3 3 3 3 3 3 3 3 2 2 2 2 3 3 2 2 1 1 2 2 2 2 2 1 1
3 3 3 3 2 2 0 3 3 3 5 5 5 5 5 5 5 4 3 4 4 3 3 3 3 2 2 3 3 3 3 3 2 2 2 3 3 3 2 2 1 2 2 2 2 2 2 1 1
4 3 4 4 1 1 2 4 4 3 4 5 5 5 6 6 4 4 4 4 4 3 3 3 3 1 2 2 1 1 1 2 2 2 2 3 2 2 2 1 1 2 1 1 1 2 2 2 1
3 2 3 3 1 2 1 3 4 4 6 7 7 7 7 5 4 4 5 4 4 4 4 3 3 2 1 1 1 1 1 1 1 2 3 3 2 2 1 1 1 1 1 2 2 2 1 1 2
3 5 4 3 2 3 1 4 3 3 3 4 5 6 7 8 7 6 6 5 4 4 4 4 3 3 2 2 3 3 2 2 2 2 2 3 3 2 2 1 1 1 1 1 1 1 2 1 2
5 5 5 3 2 2 1 3 6 3 3 4 5 4 6 7 7 7 7 6 6 5 4 3 3 3 2 3 3 3 2 1 0 0 1 2 3 2 2 2 1 1 1 1 0 1 1 2 1
5 1 3 2 3 1 2 2 7 2 4 7 7 7 6 7 8 8 8 7 6 5 5 4 3 3 2 2 3 3 2 1 0 1 2 2 3 3 3 2 2 1 1 1 1 1 2 1 1
4 6 6 6 5 1 3 3 6 5 7 6 7 7 6 6 6 6 6 6 5 4 4 5 4 3 2 3 2 3 3 2 1 1 1 2 2 2 3 2 2 1 1 0 0 1 1 1 1
5 6 4 4 3 5 2 2 9 7 6 7 7 7 6 6 6 6 6 7 6 5 5 4 5 3 3 3 2 3 3 2 2 1 0 1 1 2 3 2 2 1 1 1 1 2 1 1 1
4 8 7 5 5 5 2 5 8 5 3 3 4 5 5 5 5 6 7 7 7 6 6 5 5 4 4 3 2 2 2 1 1 0 0 1 1 1 2 2 2 2 2 2 2 1 1 1 1
5 4 6 6 2 1 5 7 9 2 1 3 4 4 5 5 5 5 5 6 7 7 6 6 5 4 4 3 2 2 1 1 0 1 0 0 1 1 1 2 2 2 2 2 1 1 0 1 1
5 8 6 5 5 3 5 5 5 6 3 3 5 5 5 4 4 5 5 5 6 5 5 5 5 4 3 3 3 2 1 1 0 1 1 1 1 1 1 2 2 2 2 1 1 1 0 1 0
3 5 5 5 5 5 3 7 5 6 5 6 6 6 6 6 6 5 5 4 5 5 5 5 5 4 4 4 3 2 2 1 1 0 1 1 1 1 1 1 1 2 2 1 1 1 0 0 1
4 6 7 5 4 4 4 7 5 3 3 4 4 4 5 6 6 5 4 4 5 5 5 5 5 5 4 4 4 3 2 2 1 1 1 1 1 1 1 1 1 1 2 1 1 1 1 1 1
Wind_Direction
159 147 143 140 53 38 333 312 306 4 43 43 74 88 104 109 152 245 305 168 164 183 207 207 188 180 177 175 174 172 172 171 167 165 165 164 163 161 163 163 164 167 169 171 172 174 174 178 183
146 153 175 57 67 27 320 318 350 2 139 129 77 73 69 41 51 111 289 235 160 177 196 197 178 173 170 169 169 171 172 170 168 165 165 166 166 167 167 167 169 172 174 178 180 182 183 185 187
161 194 75 55 73 173 277 310 334 64 104 102 71 54 77 34 45 179 224 164 98 97 206 212 185 175 169 167 170 171 169 168 167 166 165 166 165 166 165 166 174 177 180 184 188 190 192 190 186
161 101 47 52 6 252 226 260 233 134 37 41 88 56 38 18 151 172 136 119 99 34 225 235 199 184 173 171 171 163 158 161 166 164 160 162 165 164 165 171 177 182 189 190 191 196 199 197 194
83 73 44 19 322 298 275 255 221 107 75 57 85 83 14 0 58 101 116 115 119 323 294 261 187 179 174 173 169 159 152 151 155 157 161 165 170 170 174 177 183 188 191 195 200 203 207 201 204
55 64 55 354 319 323 332 358 59 63 84 80 87 85 10 23 70 100 103 92 94 65 343 20 124 143 161 168 171 165 160 157 158 163 166 170 173 171 173 182 188 192 198 200 204 214 221 218 216
94 68 70 273 307 318 293 19 68 81 82 102 112 90 1 12 73 100 88 83 69 52 38 23 52 103 150 165 171 172 164 166 163 162 164 166 166 166 170 182 196 199 206 211 217 225 228 226 226
134 91 11 289 267 279 289 8 63 98 78 89 90 117 193 221 100 92 78 69 56 43 28 16 26 34 50 117 157 162 163 159 149 151 158 161 156 160 168 182 201 210 220 218 225 233 234 230 227
123 72 270 240 216 254 254 21 19 55 88 68 63 114 142 121 103 91 78 52 36 27 10 3 24 41 33 57 122 132 140 137 136 145 142 131 113 119 134 165 199 216 232 237 236 236 232 233 230
113 147 233 221 196 208 246 90 132 73 71 73 73 80 102 108 112 115 118 111 50 351 354 10 29 39 48 70 79 79 93 76 64 62 64 70 72 68 72 88 43 321 293 290 266 240 221 226 222
166 205 253 255 220 178 160 129 88 118 107 175 154 140 125 116 116 126 143 160 211 288 13 26 31 43 65 66 72 78 75 64 60 65 68 66 57 48 42 33 5 1 10 357 340 336 101 143 162
194 246 243 258 178 142 149 130 93 120 184 151 144 144 141 139 143 155 156 152 90 65 38 49 66 71 73 82 74 78 77 71 66 56 74 78 77 67 62 54 17 8 12 6 15 33 68 86 118
222 283 298 283 320 137 111 107 112 84 111 115 121 131 145 150 154 153 139 111 88 86 58 63 76 86 82 82 74 83 91 98 84 58 64 96 113 94 76 55 35 11 24 32 29 45 64 74 97
248 314 329 343 18 73 106 86 98 170 125 119 129 150 162 165 167 153 135 129 124 110 77 77 85 95 96 97 96 77 78 85 84 64 48 73 100 111 110 83 41 16 22 59 53 51 66 65 84
6 24 0 7 43 96 106 47 244 172 130 139 155 168 174 180 178 175 170 162 160 141 89 83 99 90 95 92 83 79 70 80 79 63 54 65 97 106 109 94 51 18 38 64 63 50 64 64 62
31 42 356 305 74 126 117 240 244 157 149 164 173 177 185 197 198 188 168 158 153 132 101 86 102 99 96 92 78 71 66 71 66 47 51 71 90 99 100 85 48 37 63 69 67 55 65 60 52
28 7 277 295 298 106 122 239 239 160 161 180 182 186 187 202 221 202 178 158 145 135 116 100 88 99 102 88 74 69 64 61 51 45 46 53 64 80 92 85 49 50 62 58 69 62 80 70 37
244 256 258 259 263 93 155 256 257 184 178 195 193 194 198 211 220 198 163 144 136 121 113 111 95 81 88 84 71 61 55 49 45 40 36 47 53 65 76 73 39 54 61 53 64 71 63 84 59
199 216 264 265 246 134 233 258 255 203 188 200 206 206 211 221 208 162 147 144 132 117 117 128 118 100 97 98 95 78 51 34 28 25 29 38 48 68 85 71 48 57 67 61 60 86 74 61 65
188 226 270 314 48 139 245 272 258 215 206 206 207 213 212 208 188 166 157 153 149 151 150 147 143 138 127 138 127 110 95 50 20 358 15 21 30 41 86 99 79 63 70 55 59 81 84 51 53
221 202 219 227 28 43 50 321 277 265 224 216 214 212 209 197 193 183 171 166 161 163 167 164 159 149 135 118 97 84 62 40 27 13 6 11 21 28 42 63 79 81 106 95 63 92 114 85 39
249 235 204 184 111 309 86 275 278 256 264 238 236 226 212 198 190 186 179 176 180 184 173 161 155 135 128 126 124 123 125 129 235 353 345 3 22 26 43 55 69 71 76 82 34 91 109 122 107
212 111 106 120 130 37 3 198 282 278 248 242 234 223 212 198 192 192 191 186 185 181 171 163 147 132 127 120 133 135 134 160 49 38 29 14 12 19 27 37 50 57 56 33 43 80 98 118 140
141 74 58 51 72 329 258 184 277 234 221 226 223 213 205 198 191 189 188 180 182 175 168 160 149 151 145 141 147 151 152 145 86 49 31 357 354 3 12 26 33 38 41 20 36 93 113 119 125
96 94 40 3 8 256 267 210 252 249 224 205 205 203 202 191 183 180 178 181 184 179 177 167 155 156 156 157 164 168 162 153 159 175 174 346 348 344 341 359 7 8 360 22 73 83 78 109 121
159 140 157 193 221 274 300 242 257 269 244 190 187 185 188 186 186 186 190 188 185 182 177 166 160 164 161 165 171 148 136 144 171 204 207 240 263 294 325 355 3 10 24 40 68 72 59 87 110
140 159 158 135 149 274 280 282 302 315 61 142 158 166 184 190 188 187 189 190 184 182 183 176 168 174 168 162 147 122 123 133 144 354 4 313 299 321 19 20 12 14 27 33 62 75 62 83 85
134 141 106 125 152 245 287 278 264 284 269 195 181 187 189 183 187 191 188 187 183 180 175 166 166 172 161 146 157 150 131 114 1 22 345 338 340 355 21 15 1 3 13 30 69 68 43 92 254
110 104 110 118 148 159 246 269 238 233 225 203 203 192 184 184 192 196 191 181 166 157 156 156 152 148 150 154 151 139 114 112 126 305 294 301 352 8 13 345 353 1 9 18 51 12 18 17 323
160 158 148 152 202 174 188 265 284 233 221 194 200 196 183 181 181 173 170 160 150 151 149 154 154 152 156 151 142 144 135 118 107 54 330 356 13 358 346 344 360 353 7 11 8 324 334 319 304
Height
1491 1491 1491 1493 1495 1501 1501 1492 1485 1483 1482 1482 1482 1482 1483 1485 1488 1491 1485 1482 1481 1479 1478 1477 1476 1475 1475 1476 1478 1479 1480 1481 1483 1485 1487 1489 1491 1493 1495 1497 1498 1499 1501 1502 1503 1504 1506 1507 1508
1491 1491 1493 1494 1500 1510 1503 1490 1486 1483 1483 1482 1483 1483 1483 1484 1484 1484 1483 1482 1481 1480 1478 1477 1476 1476 1476 1477 1478 1479 1479 1480 1482 1484 1487 1489 1491 1493 1495 1496 1498 1499 1500 1502 1503 1504 1505 1506 1507
1492 1492 1494 1495 1501 1507 1500 1489 1486 1483 1483 1483 1484 1484 1485 1485 1485 1484 1484 1483 1482 1481 1479 1478 1477 1477 1477 1478 1479 1479 1478 1478 1480 1483 1486 1489 1491 1493 1495 1496 1498 1499 1500 1501 1502 1504 1505 1506 1507
1493 1494 1495 1499 1502 1496 1492 1487 1485 1484 1484 1484 1484 1486 1486 1487 1486 1485 1484 1483 1483 1481 1480 1478 1476 1476 1478 1479 1480 1479 1478 1477 1478 1482 1486 1489 1491 1493 1495 1496 1498 1499 1500 1501 1502 1503 1504 1505 1506
1493 1495 1499 1504 1500 1492 1488 1487 1486 1486 1485 1486 1486 1487 1488 1488 1487 1486 1485 1484 1484 1483 1481 1478 1474 1475 1478 1480 1481 1481 1480 1478 1479 1483 1486 1490 1492 1493 1495 1496 1497 1499 1500 1501 1502 1503 1504 1504 1505
1495 1495 1507 1510 1500 1491 1488 1487 1486 1487 1487 1487 1487 1488 1490 1490 1488 1487 1486 1486 1485 1484 1483 1480 1478 1478 1480 1481 1482 1482 1483 1483 1484 1486 1489 1491 1493 1494 1495 1497 1498 1499 1500 1500 1501 1502 1503 1503 1504
1496 1499 1505 1505 1501 1494 1488 1487 1487 1487 1487 1488 1488 1490 1490 1490 1490 1489 1488 1487 1487 1486 1484 1483 1482 1482 1482 1483 1483 1484 1484 1486 1487 1488 1490 1492 1493 1495 1496 1497 1498 1499 1499 1500 1501 1501 1502 1503 1503
1495 1499 1503 1503 1501 1496 1489 1488 1488 1488 1489 1490 1490 1491 1491 1492 1491 1490 1489 1489 1488 1487 1486 1485 1484 1484 1483 1483 1483 1485 1486 1487 1489 1490 1491 1493 1494 1495 1496 1497 1498 1499 1499 1500 1500 1501 1501 1501 1502
1496 1503 1507 1501 1498 1493 1489 1489 1489 1489 1490 1491 1491 1491 1492 1492 1491 1491 1490 1490 1489 1489 1488 1487 1486 1486 1485 1485 1485 1486 1487 1489 1490 1491 1493 1494 1495 1496 1497 1498 1498 1499 1499 1499 1500 1500 1500 1500 1501
1496 1504 1499 1491 1490 1489 1489 1489 1489 1490 1491 1492 1492 1492 1492 1493 1493 1492 1491 1491 1490 1490 1489 1488 1488 1487 1487 1487 1487 1488 1489 1490 1492 1493 1494 1495 1496 1497 1498 1499 1499 1499 1499 1499 1499 1499 1499 1500 1500
1494 1496 1490 1488 1487 1488 1489 1490 1490 1491 1492 1492 1492 1493 1493 1493 1494 1493 1493 1492 1492 1492 1491 1490 1490 1490 1489 1489 1489 1490 1491 1492 1493 1494 1495 1496 1497 1498 1498 1499 1499 1499 1499 1499 1498 1498 1499 1499 1499
1493 1490 1489 1487 1486 1487 1489 1490 1491 1491 1492 1492 1493 1493 1493 1494 1494 1494 1494 1494 1494 1493 1493 1492 1491 1491 1491 1491 1491 1492 1493 1494 1495 1496 1496 1497 1498 1498 1499 1499 1499 1499 1499 1499 1498 1498 1499 1499 1499
1491 1489 1487 1486 1486 1487 1488 1490 1491 1492 1493 1493 1494 1494 1494 1495 1495 1496 1496 1495 1495 1495 1494 1493 1493 1492 1493 1493 1493 1494 1495 1495 1496 1497 1497 1498 1499 1499 1499 1499 1499 1499 1499 1499 1499 1499 1499 1499 1500
1490 1489 1488 1487 1486 1487 1489 1491 1492 1493 1493 1494 1495 1495 1495 1496 1496 1496 1497 1497 1496 1496 1495 1495 1494 1494 1494 1494 1495 1495 1496 1497 1497 1498 1498 1499 1499 1499 1500 1500 1500 1500 1500 1500 1499 1499 1499 1500 1500
1490 1491 1489 1488 1488 1489 1490 1494 1493 1493 1494 1495 1495 1496 1496 1497 1497 1497 1497 1498 1498 1497 1497 1496 1496 1495 1495 1496 1496 1497 1498 1498 1499 1499 1500 1500 1500 1500 1500 1500 1500 1500 1500 1500 1500 1500 1499 1500 1500
1492 1496 1500 1491 1489 1489 1494 1501 1492 1493 1493 1494 1495 1496 1496 1497 1498 1498 1498 1499 1499 1499 1498 1498 1497 1497 1497 1498 1498 1499 1499 1499 1500 1500 1501 1501 1501 1501 1501 1501 1501 1501 1500 1500 1500 1500 1500 1500 1500
1500 1506 1503 1495 1489 1489 1493 1498 1492 1492 1493 1494 1495 1496 1496 1497 1498 1498 1499 1499 1499 1500 1500 1499 1499 1499 1499 1499 1500 1500 1501 1501 1501 1501 1502 1502 1502 1502 1502 1502 1501 1501 1501 1501 1501 1500 1500 1500 1500
1506 1505 1502 1499 1490 1491 1495 1495 1491 1492 1493 1494 1494 1495 1496 1496 1497 1498 1499 1499 1500 1500 1500 1500 1500 1500 1500 1501 1501 1501 1502 1502 1502 1503 1503 1503 1503 1503 1502 1502 1502 1502 1501 1501 1501 1501 1500 1500 1500
1495 1499 1502 1496 1488 1492 1496 1496 1492 1491 1492 1493 1494 1494 1494 1495 1497 1498 1499 1499 1500 1500 1501 1501 1501 1501 1502 1502 1502 1502 1503 1503 1503 1503 1503 1503 1503 1503 1503 1503 1503 1502 1502 1501 1501 1501 1500 1500 1501
1493 1499 1500 1494 1489 1492 1497 1496 1491 1490 1490 1491 1492 1492 1492 1494 1495 1497 1498 1499 1500 1500 1500 1501 1501 1501 1502 1503 1503 1504 1504 1504 1504 1504 1504 1504 1504 1504 1503 1503 1502 1502 1502 1501 1501 1501 1501 1501 1501
1493 1497 1496 1496 1493 1493 1497 1500 1494 1489 1489 1489 1489 1490 1490 1492 1493 1495 1496 1498 1499 1500 1500 1501 1501 1502 1502 1503 1504 1504 1504 1504 1504 1504 1504 1504 1504 1503 1503 1503 1503 1502 1502 1501 1501 1501 1501 1501 1501
1496 1486 1488 1492 1501 1509 1503 1517 1498 1491 1489 1488 1487 1488 1488 1490 1492 1493 1495 1497 1498 1499 1500 1501 1502 1502 1503 1503 1503 1504 1504 1504 1504 1504 1504 1504 1504 1503 1503 1503 1502 1502 1502 1501 1501 1501 1501 1500 1500
1486 1482 1488 1493 1501 1510 1508 1515 1504 1492 1491 1487 1485 1486 1486 1488 1490 1491 1493 1495 1497 1498 1500 1501 1501 1502 1502 1503 1503 1504 1504 1504 1504 1504 1504 1504 1503 1503 1503 1502 1502 1502 1501 1501 1501 1501 1500 1500 1500
1480 1487 1493 1502 1509 1521 1511 1515 1508 1494 1486 1482 1482 1483 1485 1487 1489 1490 1492 1494 1496 1497 1499 1500 1500 1501 1502 1502 1503 1503 1503 1504 1504 1504 1504 1503 1503 1503 1502 1502 1502 1501 1501 1500 1500 1500 1499 1499 1499
1483 1500 1518 1521 1529 1525 1510 1511 1503 1481 1477 1477 1479 1480 1483 1485 1487 1489 1490 1492 1494 1496 1497 1498 1499 1500 1501 1502 1503 1503 1503 1504 1503 1503 1503 1503 1503 1502 1502 1501 1501 1500 1500 1499 1499 1498 1498 1498 1498
1486 1495 1518 1528 1531 1524 1511 1511 1490 1475 1473 1475 1477 1479 1481 1483 1485 1487 1489 1490 1492 1494 1496 1497 1498 1499 1500 1501 1502 1503 1503 1503 1503 1503 1503 1502 1502 1502 1501 1501 1500 1500 1499 1499 1498 1497 1497 1497 1497
1486 1494 1495 1513 1519 1523 1516 1503 1485 1473 1473 1474 1476 1477 1479 1481 1483 1485 1487 1489 1490 1492 1494 1496 1497 1498 1499 1501 1502 1502 1503 1503 1503 1503 1502 1502 1501 1501 1501 1500 1500 1499 1499 1498 1497 1496 1496 1495 1495
1478 1488 1502 1513 1524 1527 1515 1507 1498 1480 1476 1475 1475 1476 1477 1479 1481 1483 1485 1487 1489 1491 1493 1495 1496 1498 1499 1500 1501 1502 1502 1503 1503 1502 1502 1501 1501 1500 1500 1499 1499 1498 1497 1497 1496 1495 1495 1494 1494
1484 1490 1499 1511 1512 1524 1524 1509 1479 1476 1473 1473 1473 1474 1476 1478 1480 1481 1483 1485 1487 1489 1492 1494 1495 1497 1498 1499 1500 1501 1501 1502 1502 1501 1501 1501 1500 1499 1499 1498 1498 1497 1496 1495 1495 1494 1494 1493 1492
1476 1483 1493 1505 1511 1515 1518 1505 1470 1470 1470 1470 1471 1472 1474 1476 1478 1480 1482 1484 1486 1488 1490 1492 1494 1496 1497 1498 1499 1500 1500 1501 1500 1500 1500 1500 1499 1499 1498 1497 1497 1496 1495 1494 1494 1493 1492 1491 1490